When you browse on this site, cookies collect data to enhance your experience and personalize the content and advertising you see.
Visit our Privacy Policy to learn more. By continuing to use the site, you agree to this use of cookies and data.
  • In Slovakia
  • List of Countries
  • For 7 days
  • Water Temperature
  • Satellite Maps
  • Weather Map
  • Weather Widgets
  • user-avatar
    Login

    Hourly Weather Sidi Bu-l-Abbas

    Today, 21 May, Tuesday

    Time Temperature Precipitation Wind Pressure Humidity
    00:00 +17°C° 0 mm 0 mps 718 mmHg 60%
    01:00 +17°C° 0 mm 0 mps 718 mmHg 61%
    02:00 +16°C° 0 mm 0 mps 718 mmHg 61%
    03:00 +16°C° 0 mm 0 mps 718 mmHg 62%
    04:00 +18°C° 0 mm 1 mps 718 mmHg 61%
    05:00 +18°C° 0 mm 1 mps 718 mmHg 60%
    06:00 +19°C° 0 mm 1 mps 718 mmHg 57%
    07:00 +20°C° 0 mm 1 mps 719 mmHg 50%
    08:00 +21°C° 0 mm 2 mps 719 mmHg 44%
    09:00 +23°C° 0 mm 2 mps 719 mmHg 37%
    10:00 +24°C° 0 mm 3 mps 719 mmHg 35%
    11:00 +25°C° 0 mm 3 mps 719 mmHg 34%
    12:00 +26°C° 0 mm 4 mps 719 mmHg 32%
    13:00 +26°C° 0 mm 5 mps 719 mmHg 33%
    14:00 +26°C° 0 mm 5 mps 719 mmHg 33%
    15:00 +27°C° 0 mm 5 mps 719 mmHg 34%
    16:00 +26°C° 0 mm 5 mps 719 mmHg 36%
    17:00 +25°C° 0 mm 5 mps 719 mmHg 39%
    18:00 +23°C° 0 mm 5 mps 719 mmHg 41%
    19:00 +22°C° 0 mm 3 mps 719 mmHg 45%
    20:00 +21°C° 0 mm 2 mps 719 mmHg 48%
    21:00 +19°C° 0 mm 0 mps 720 mmHg 52%
    22:00 +18°C° 0 mm 0 mps 720 mmHg 54%
    23:00 +17°C° 0 mm 0 mps 720 mmHg 57%

    Tomorrow, 22 May, Wednesday

    Time Temperature Precipitation Wind Pressure Humidity
    00:00 +17°C° 0 mm 0 mps 720 mmHg 60%
    01:00 +16°C° 0 mm 0 mps 720 mmHg 62%
    02:00 +15°C° 0 mm 0 mps 720 mmHg 64%
    03:00 +15°C° 0 mm 0 mps 719 mmHg 66%
    04:00 +15°C° 0 mm 0 mps 720 mmHg 65%
    05:00 +16°C° 0 mm 0 mps 720 mmHg 63%
    06:00 +17°C° 0 mm 0 mps 720 mmHg 61%
    07:00 +18°C° 0 mm 0 mps 721 mmHg 52%
    08:00 +20°C° 0 mm 0 mps 721 mmHg 43%
    09:00 +21°C° 0 mm 0 mps 721 mmHg 34%
    10:00 +25°C° 0 mm 1 mps 721 mmHg 31%
    11:00 +26°C° 0 mm 2 mps 722 mmHg 28%
    12:00 +27°C° 0 mm 2 mps 722 mmHg 25%
    13:00 +28°C° 0 mm 3 mps 721 mmHg 25%
    14:00 +28°C° 0 mm 4 mps 721 mmHg 25%
    15:00 +29°C° 0 mm 5 mps 721 mmHg 25%
    16:00 +28°C° 0 mm 5 mps 721 mmHg 28%
    17:00 +27°C° 0 mm 5 mps 720 mmHg 31%
    18:00 +26°C° 0 mm 5 mps 720 mmHg 34%
    19:00 +25°C° 0 mm 4 mps 720 mmHg 37%
    20:00 +22°C° 0 mm 3 mps 721 mmHg 41%
    21:00 +21°C° 0 mm 2 mps 721 mmHg 44%
    22:00 +22°C° 0 mm 1 mps 721 mmHg 47%
    23:00 +21°C° 0 mm 1 mps 721 mmHg 49%

    Day after tomorrow, 23 May, Thursday

    Time Temperature Precipitation Wind Pressure Humidity
    00:00 +20°C° 0 mm 1 mps 721 mmHg 52%
    01:00 +20°C° 0 mm 1 mps 721 mmHg 53%
    02:00 +17°C° 0 mm 0 mps 721 mmHg 54%
    03:00 +17°C° 0 mm 0 mps 720 mmHg 54%
    04:00 +17°C° 0 mm 0 mps 720 mmHg 54%
    05:00 +18°C° 0 mm 0 mps 720 mmHg 54%
    06:00 +18°C° 0 mm 0 mps 721 mmHg 53%
    07:00 +22°C° 0 mm 1 mps 721 mmHg 45%
    08:00 +24°C° 0 mm 1 mps 721 mmHg 37%
    09:00 +26°C° 0 mm 2 mps 721 mmHg 30%
    10:00 +27°C° 0 mm 2 mps 721 mmHg 26%
    11:00 +29°C° 0 mm 2 mps 721 mmHg 23%
    12:00 +30°C° 0 mm 2 mps 721 mmHg 20%
    13:00 +31°C° 0 mm 3 mps 721 mmHg 20%
    14:00 +32°C° 0 mm 4 mps 721 mmHg 20%
    15:00 +33°C° 0 mm 5 mps 720 mmHg 19%
    16:00 +32°C° 0 mm 5 mps 720 mmHg 21%
    17:00 +30°C° 0 mm 5 mps 720 mmHg 23%
    18:00 +28°C° 0 mm 5 mps 719 mmHg 25%
    19:00 +27°C° 0 mm 3 mps 719 mmHg 29%
    20:00 +25°C° 0 mm 2 mps 720 mmHg 33%
    21:00 +22°C° 0 mm 0 mps 720 mmHg 37%
    22:00 +21°C° 0 mm 0 mps 719 mmHg 39%
    23:00 +21°C° 0 mm 0 mps 719 mmHg 41%

    24 May, Friday

    Time Temperature Precipitation Wind Pressure Humidity
    00:00 +20°C° 0 mm 0 mps 719 mmHg 42%
    01:00 +20°C° 0 mm 0 mps 719 mmHg 42%
    02:00 +21°C° 0 mm 1 mps 718 mmHg 41%
    03:00 +21°C° 0 mm 1 mps 718 mmHg 41%
    04:00 +21°C° 0 mm 1 mps 718 mmHg 43%
    05:00 +21°C° 0 mm 1 mps 718 mmHg 44%
    06:00 +20°C° 0 mm 0 mps 718 mmHg 46%
    07:00 +23°C° 0 mm 1 mps 718 mmHg 40%
    08:00 +25°C° 0 mm 1 mps 718 mmHg 34%
    09:00 +27°C° 0 mm 1 mps 718 mmHg 28%
    10:00 +28°C° 0 mm 2 mps 718 mmHg 27%
    11:00 +29°C° 0 mm 3 mps 718 mmHg 26%
    12:00 +30°C° 0 mm 4 mps 717 mmHg 25%
    13:00 +30°C° 0 mm 5 mps 717 mmHg 25%
    14:00 +30°C° 0 mm 6 mps 716 mmHg 25%
    15:00 +30°C° 0 mm 6 mps 716 mmHg 25%
    16:00 +29°C° 0 mm 6 mps 716 mmHg 26%
    17:00 +27°C° 0 mm 5 mps 716 mmHg 27%
    18:00 +26°C° 0 mm 4 mps 715 mmHg 28%
    19:00 +25°C° 0 mm 3 mps 716 mmHg 33%
    20:00 +24°C° 0 mm 3 mps 716 mmHg 38%
    21:00 +23°C° 0 mm 2 mps 717 mmHg 42%
    22:00 +21°C° 0 mm 2 mps 717 mmHg 48%
    23:00 +20°C° 0 mm 2 mps 717 mmHg 53%

    25 May, Saturday

    Time Temperature Precipitation Wind Pressure Humidity
    00:00 +19°C° 0 mm 2 mps 717 mmHg 58%
    01:00 +18°C° 0 mm 2 mps 716 mmHg 65%
    02:00 +18°C° 0 mm 2 mps 716 mmHg 71%
    03:00 +17°C° 0 mm 2 mps 716 mmHg 78%
    04:00 +17°C° 0 mm 2 mps 716 mmHg 80%
    05:00 +16°C° 0 mm 2 mps 716 mmHg 82%
    06:00 +16°C° 0 mm 2 mps 716 mmHg 85%
    07:00 +17°C° 0 mm 2 mps 716 mmHg 79%
    08:00 +18°C° 0 mm 3 mps 717 mmHg 72%
    09:00 +18°C° 0 mm 3 mps 717 mmHg 66%
    10:00 +19°C° 0 mm 3 mps 717 mmHg 62%
    11:00 +20°C° 0 mm 4 mps 717 mmHg 58%
    12:00 +21°C° 0 mm 5 mps 717 mmHg 54%
    13:00 +22°C° 0 mm 5 mps 717 mmHg 52%
    14:00 +22°C° 0 mm 6 mps 717 mmHg 51%
    15:00 +23°C° 0 mm 6 mps 716 mmHg 49%
    16:00 +22°C° 0 mm 6 mps 717 mmHg 54%
    17:00 +21°C° 0 mm 6 mps 717 mmHg 59%
    18:00 +20°C° 0 mm 6 mps 717 mmHg 65%
    19:00 +19°C° 0 mm 5 mps 718 mmHg 69%
    20:00 +18°C° 0 mm 4 mps 718 mmHg 74%
    21:00 +17°C° 0 mm 3 mps 719 mmHg 79%
    22:00 +17°C° 0 mm 3 mps 718 mmHg 80%
    23:00 +17°C° 0 mm 3 mps 718 mmHg 81%

    26 May, Sunday

    Time Temperature Precipitation Wind Pressure Humidity
    00:00 +16°C° 0 mm 2 mps 718 mmHg 82%
    01:00 +16°C° 0.1 mm 3 mps 718 mmHg 81%
    02:00 +16°C° 0.1 mm 3 mps 718 mmHg 81%
    03:00 +16°C° 0.1 mm 3 mps 718 mmHg 81%
    04:00 +16°C° 0.1 mm 3 mps 718 mmHg 81%
    05:00 +16°C° 0.1 mm 2 mps 718 mmHg 81%
    06:00 +16°C° 0.1 mm 2 mps 719 mmHg 81%
    07:00 +17°C° 0.2 mm 2 mps 719 mmHg 77%
    08:00 +18°C° 0.2 mm 3 mps 719 mmHg 72%
    09:00 +18°C° 0.2 mm 3 mps 719 mmHg 67%
    10:00 +19°C° 0.3 mm 4 mps 719 mmHg 63%
    11:00 +20°C° 0.3 mm 5 mps 719 mmHg 58%
    12:00 +21°C° 0.3 mm 6 mps 719 mmHg 53%
    13:00 +21°C° 0.2 mm 7 mps 719 mmHg 51%
    14:00 +22°C° 0.2 mm 7 mps 719 mmHg 50%
    15:00 +22°C° 0.2 mm 8 mps 719 mmHg 48%
    16:00 +21°C° 0 mm 7 mps 719 mmHg 51%
    17:00 +20°C° 0 mm 6 mps 719 mmHg 53%
    18:00 +20°C° 0 mm 6 mps 719 mmHg 55%
    19:00 +19°C° 0 mm 4 mps 720 mmHg 60%
    20:00 +18°C° 0 mm 3 mps 720 mmHg 66%
    21:00 +17°C° 0 mm 2 mps 721 mmHg 72%
    22:00 +17°C° 0 mm 2 mps 720 mmHg 75%
    23:00 +16°C° 0 mm 1 mps 720 mmHg 78%
    Show more